This is the latest recevied weather packets stored in our database for station/object VK2BNC-13. If no packets are shown the sender has not sent any weather packets the latest 10 day(s).
| Time | Temp. | Humidity | Pressure | Rain* | Wind** | Luminosity | Snow |
|---|---|---|---|---|---|---|---|
| 1777260143 | 23.89° C | 50% | - | 0 mm | - | - | - |
| 1777259244 | 23.89° C | 51% | - | 0 mm | - | - | - |
| 1777258342 | 23.89° C | 53% | - | 0 mm | - | - | - |
| 1777257442 | 23.33° C | 54% | - | 0 mm | - | - | - |
| 1777256539 | 23.33° C | 53% | - | 0 mm | - | - | - |
| 1777255640 | 23.33° C | 55% | - | 0 mm | - | - | - |
| 1777254740 | 23.33° C | 55% | - | 0 mm | - | - | - |
| 1777253837 | 23.33° C | 53% | - | 0 mm | - | - | - |
| 1777252938 | 22.22° C | 56% | - | 0 mm | - | - | - |
| 1777252037 | 21.11° C | 59% | - | 0 mm | - | - | - |
| 1777251137 | 20.56° C | 64% | - | 0 mm | - | - | - |
| 1777250236 | 19.44° C | 67% | - | 0 mm | - | - | - |
| 1777249335 | 18.89° C | 71% | - | 0 mm | - | - | - |
| 1777248435 | 17.78° C | 76% | - | 0.25 mm | - | - | - |
| 1777247535 | 16.67° C | 84% | - | 0.25 mm | - | - | - |
| 1777246631 | 15.56° C | 92% | - | 0.25 mm | - | - | - |
| 1777245732 | 14.44° C | 97% | - | 0.25 mm | - | - | - |
| 1777244831 | 13.33° C | 97% | - | 0 mm | - | - | - |
| 1777243931 | 12.78° C | 98% | - | 0 mm | - | - | - |
| 1777243029 | 12.22° C | 98% | - | 0 mm | - | - | - |
| 1777242129 | 11.11° C | 98% | - | 0 mm | - | - | - |
| 1777241229 | 9.44° C | 97% | - | 0 mm | - | - | - |
| 1777240327 | 9.44° C | 97% | - | 0 mm | - | - | - |
| 1777239426 | 8.89° C | 97% | - | 0 mm | - | - | - |
| 1777238525 | 8.33° C | 97% | - | 0 mm | - | - | - |
* Rain latest hour (hover to see other rain measurements)
** Current wind speed in m/s (hover to see current wind gust speed)